Back to catalog

UK-DMC

AliveScienceSSO
NORAD 27942·PAYLOAD·🇬🇧 United Kingdom

Launched Sep 27, 2003 from Plesetsk Cosmodrome

Loading…

Next Passes (next 24 hours)

TLE

FreshSource: Space-Track

Epoch: Sep 14, 2026, 05:55 UTC

1 27942U 03042D   26257.24705480  .00000770  00000-0  90205-4 0  9999
2 27942  98.0803  87.9550 0052023 273.1014  86.4249 14.87193777236006

Track UK-DMC in real time with AllMySat

Download on the App Store